[[{"header":{"parameterUnit":"m.s-1","parameterCategory":1,"la1":30.2991,"la2":30.254,"lo1":-89.0895,"lo2":-89.0444,"dy":0.0017,"dx":0.0017,"nx":28,"ny":28,"refTime":"2025-11-12T09:00:00:Z","depth":0,"parameterNumber":2,"parameterNumberName":"U-component_of_WINDS"},"data":[0,0,0,0,0,0,0,0,0,0,0,0,0,0,0,0,0,0,0,0,0,0,0,0,0,0,0,0,0,0,0,0,0,0,0,0,0,0,0,0,0,0,0,0,0,0,0,0,0,0,0,0,0,0,0,0,0,0,-0.2258,-0.2258,0,-0.2269,-0.2269,-0.2269,-0.2304,-0.2305,-0.2306,-0.2307,-0.2316,-0.2316,-0.2316,0,0,0,0,0,0,0,0,0,0,0,0,0,-0.2265,-0.2265,-0.2258,-0.2258,-0.2258,-0.2269,-0.2269,-0.2269,-0.2304,-0.2305,-0.2306,-0.2307,-0.2317,-0.2316,-0.2316,0,0,0,0,0,0,0,0,0,0,0,0,0,-0.2268,-0.2265,-0.2258,-0.2277,-0.2278,-0.2269,-0.2269,-0.2269,-0.2304,-0.2305,-0.2306,-0.2307,-0.2317,-0.2316,-0.2315,-0.2288,0,0,-0.2313,-0.2313,0,0,0,0,0,0,0,0,-0.2268,-0.2268,-0.2274,-0.2275,-0.2277,-0.2287,-0.2276,-0.2276,-0.2304,-0.2294,-0.2307,-0.2308,-0.2305,-0.2306,-0.2305,-0.2288,-0.2289,-0.2313,-0.2313,-0.2313,-0.2312,0,0,0,0,0,0,0,-0.2267,-0.2267,-0.2262,-0.2274,-0.2276,-0.2285,-0.2286,-0.2276,-0.2293,-0.2295,-0.2298,-0.2299,-0.2307,-0.2306,-0.2306,-0.2289,-0.2313,-0.2313,-0.2312,-0.2312,-0.2251,-0.225,0,0,0,0,0,0,-0.2265,-0.2267,-0.2262,-0.2262,-0.2275,-0.2283,-0.2285,-0.2282,-0.2293,-0.2296,-0.2298,-0.23,-0.2306,-0.2307,-0.2306,-0.2275,-0.2313,-0.2312,-0.2312,-0.2253,-0.2251,-0.225,0,0,0,0,0,0,-0.2265,-0.2264,-0.2261,-0.2265,-0.2266,-0.2282,-0.2279,-0.2282,-0.2281,-0.2295,-0.2298,-0.2294,-0.2307,-0.2307,-0.2293,-0.2276,-0.2312,-0.2311,-0.2254,-0.2252,-0.225,-0.2212,0,0,0,0,0,0,-0.2265,-0.2264,-0.2253,-0.2265,-0.2265,-0.2247,-0.2278,-0.2281,-0.228,-0.2284,-0.2292,-0.2295,-0.2308,-0.2293,-0.2292,-0.2276,-0.231,-0.2255,-0.2253,-0.2251,-0.2215,-0.2209,-0.2204,0,0,0,0,0,-0.2265,-0.2241,-0.2253,-0.2252,-0.2253,-0.2246,-0.2247,-0.2263,-0.2279,-0.2268,-0.2278,-0.2295,-0.2278,-0.2292,-0.229,-0.2273,-0.2257,-0.2254,-0.2251,-0.2217,-0.221,-0.2205,0,0,0,0,0,0,-0.2226,-0.2243,-0.2256,-0.2235,-0.2239,-0.2252,-0.2239,-0.2255,-0.2254,-0.2257,-0.2277,-0.2279,-0.2261,-0.2266,-0.2281,-0.2248,-0.227,-0.2267,-0.2245,-0.2239,-0.2234,-0.2232,-0.231,0,0,0,0,0,-0.2216,-0.2209,-0.2224,-0.2205,-0.2206,-0.2223,-0.222,-0.2233,-0.2237,-0.2239,-0.2247,-0.2251,-0.2247,-0.2243,-0.224,-0.2217,-0.2219,-0.2205,-0.2199,-0.2195,-0.2191,-0.218,-0.2174,-0.2241,-0.2241,-0.2241,0,0,-0.2193,-0.2201,-0.2196,-0.2197,-0.2202,-0.2195,-0.2224,-0.2214,-0.2209,-0.2237,-0.2224,-0.2231,-0.2236,-0.2217,-0.2209,-0.222,-0.2174,-0.2191,-0.2188,-0.2187,-0.2177,-0.217,-0.2165,-0.2239,-0.2239,-0.224,0,0,-0.2147,-0.2154,-0.2138,-0.2143,-0.215,-0.2161,-0.2158,-0.2169,-0.2174,-0.2162,-0.2183,-0.2177,-0.217,-0.2173,-0.2173,-0.2132,-0.2147,-0.213,-0.2102,-0.2091,-0.2086,-0.2081,-0.2066,-0.206,-0.2127,-0.2127,-0.2127,0,-0.2118,-0.2108,-0.2128,-0.2118,-0.2118,-0.2145,-0.213,-0.2133,-0.2138,-0.2138,-0.2151,-0.2143,-0.2148,-0.2131,-0.2121,-0.2121,-0.2117,-0.2128,-0.2085,-0.208,-0.2076,-0.2062,-0.2057,-0.2125,-0.2125,-0.2125,-0.2126,0,-0.2072,-0.2065,-0.2052,-0.2057,-0.2056,-0.2044,-0.2062,-0.2058,-0.2072,-0.2082,-0.2069,-0.2077,-0.2076,-0.2074,-0.2086,-0.2058,-0.2065,-0.2081,-0.2104,-0.2067,-0.2055,-0.2049,-0.2122,-0.2123,-0.2123,-0.2124,0,0,-0.2,-0.2019,-0.2013,-0.2017,-0.2027,-0.2022,-0.2012,-0.2012,-0.2009,-0.2012,-0.2003,-0.1997,-0.2013,-0.2014,-0.2027,-0.2017,-0.1984,-0.2035,-0.2035,-0.2025,-0.1954,-0.1941,-0.1934,-0.1995,-0.1994,-0.1994,-0.1953,0,-0.1957,-0.1939,-0.1958,-0.1937,-0.1931,-0.1957,-0.1948,-0.1954,-0.1963,-0.196,-0.1971,-0.1966,-0.1987,-0.1988,-0.1979,-0.199,-0.197,-0.1993,-0.1987,-0.1986,-0.1983,-0.1927,-0.1913,-0.1875,-0.1948,-0.1948,-0.1947,0,-0.1903,-0.1905,-0.1884,-0.1897,-0.1896,-0.1887,-0.1889,-0.1886,-0.1893,-0.1901,-0.1903,-0.192,-0.191,-0.1934,-0.1921,-0.1936,-0.1935,-0.194,-0.1939,-0.1938,-0.1963,-0.1924,-0.1863,-0.1857,-0.1939,-0.194,-0.194,0,-0.1852,-0.185,-0.1837,-0.1839,-0.1855,-0.1848,-0.1854,-0.1863,-0.1863,-0.1865,-0.1865,-0.1866,-0.1866,-0.1867,-0.1883,-0.1899,-0.1869,-0.1893,-0.1874,-0.1874,-0.1865,-0.1865,-0.1802,-0.1866,-0.1866,-0.1867,-0.1867,0,-0.1801,-0.1787,-0.1815,-0.1806,-0.1791,-0.1814,-0.1798,-0.1807,-0.1815,-0.1809,-0.1832,-0.1826,-0.1849,-0.1846,-0.1859,-0.1847,-0.1847,-0.1853,-0.1856,-0.185,-0.1849,-0.1848,-0.1851,-0.1865,-0.1865,-0.1866,-0.1866,0,-0.1741,-0.1759,-0.1747,-0.1763,-0.1767,-0.1755,-0.177,-0.1763,-0.1775,-0.1767,-0.1767,-0.1786,-0.1783,-0.1801,-0.1801,-0.181,-0.1791,-0.1799,-0.1788,-0.179,-0.177,-0.1771,-0.1703,-0.1695,-0.1765,-0.1765,-0.1764,0,-0.1707,-0.1696,-0.1713,-0.1711,-0.1716,-0.1713,-0.1713,-0.1735,-0.1734,-0.1743,-0.1735,-0.1735,-0.1735,-0.1729,-0.1743,-0.1744,-0.1752,-0.1728,-0.1752,-0.1746,-0.1751,-0.1751,-0.175,-0.1722,-0.1721,-0.1721,-0.172,0,-0.1643,-0.1654,-0.1653,-0.1656,-0.1656,-0.1659,-0.1664,-0.1661,-0.1685,-0.1683,-0.1681,-0.1682,-0.1683,-0.1682,-0.1686,-0.1692,-0.171,-0.1713,-0.1708,-0.1701,-0.1695,-0.1697,-0.1773,-0.1714,-0.1714,-0.1715,-0.1715,-0.1715,-0.1595,-0.1587,-0.1598,-0.1597,-0.1603,-0.1608,-0.1602,-0.1615,-0.1614,-0.1617,-0.163,-0.1626,-0.1635,-0.1642,-0.1647,-0.1644,-0.1655,-0.1649,-0.1647,-0.1645,-0.1641,-0.1697,-0.1645,-0.1645,-0.1645,-0.1645,-0.1646,0,-0.1532,-0.1541,-0.154,-0.1547,-0.1546,-0.1565,-0.1572,-0.157,-0.1566,-0.1573,-0.1574,-0.1572,-0.1572,-0.1587,-0.1588,-0.1583,-0.1591,-0.1583,-0.1583,-0.1584,-0.1631,-0.1634,-0.1576,-0.1576,-0.1576,-0.1576,-0.1576,-0.1576,-0.1499,-0.1488,-0.1499,-0.1491,-0.1501,-0.1497,-0.1499,-0.1504,-0.151,-0.1507,-0.1508,-0.1518,-0.1528,-0.1531,-0.1532,-0.1536,-0.1535,-0.1524,-0.1531,-0.1574,-0.1581,-0.1587,-0.159,-0.1524,-0.1523,-0.1484,-0.1483,-0.1483]},{"header":{"parameterUnit":"m.s-1","parameterCategory":1,"la1":30.2991,"la2":30.254,"lo1":-89.0895,"lo2":-89.0444,"dy":0.0017,"dx":0.0017,"nx":28,"ny":28,"refTime":"2025-11-12T09:00:00:Z","depth":0,"parameterNumber":3,"parameterNumberName":"V-component_of_WINDS"},"data":[0,0,0,0,0,0,0,0,0,0,0,0,0,0,0,0,0,0,0,0,0,0,0,0,0,0,0,0,0,0,0,0,0,0,0,0,0,0,0,0,0,0,0,0,0,0,0,0,0,0,0,0,0,0,0,0,0,0,-1.0461,-1.0462,0,-1.0536,-1.0537,-1.0538,-1.0563,-1.0562,-1.0562,-1.0562,-1.0638,-1.064,-1.0642,0,0,0,0,0,0,0,0,0,0,0,0,0,-1.0338,-1.034,-1.0461,-1.0462,-1.0463,-1.0536,-1.0537,-1.0538,-1.0563,-1.0562,-1.0562,-1.0562,-1.0637,-1.0639,-1.0642,0,0,0,0,0,0,0,0,0,0,0,0,0,-1.04,-1.0341,-1.0461,-1.0484,-1.0487,-1.0536,-1.0537,-1.0538,-1.0563,-1.0562,-1.0562,-1.0561,-1.0636,-1.0639,-1.0643,-1.0674,0,0,-1.0653,-1.0655,0,0,0,0,0,0,0,0,-1.0397,-1.0405,-1.0479,-1.0482,-1.0486,-1.054,-1.0522,-1.0584,-1.0563,-1.0534,-1.0562,-1.0561,-1.0605,-1.0611,-1.0626,-1.0677,-1.068,-1.0654,-1.0656,-1.0657,-1.0658,0,0,0,0,0,0,0,-1.0392,-1.0401,-1.049,-1.048,-1.0484,-1.049,-1.0499,-1.0533,-1.0571,-1.0536,-1.0538,-1.0547,-1.0607,-1.0623,-1.0628,-1.0682,-1.0653,-1.0657,-1.0659,-1.066,-1.0764,-1.0764,0,0,0,0,0,0,-1.0384,-1.0398,-1.0488,-1.0493,-1.0439,-1.0493,-1.0502,-1.0523,-1.0571,-1.0578,-1.0547,-1.0548,-1.0617,-1.0624,-1.0631,-1.0672,-1.0657,-1.066,-1.0662,-1.0763,-1.0764,-1.0764,0,0,0,0,0,0,-1.0381,-1.0392,-1.0485,-1.0446,-1.0458,-1.0496,-1.0518,-1.0524,-1.0541,-1.0579,-1.0586,-1.0557,-1.0617,-1.0626,-1.0663,-1.0674,-1.0662,-1.0665,-1.0762,-1.0763,-1.0764,-1.0752,0,0,0,0,0,0,-1.0378,-1.0391,-1.0403,-1.0446,-1.046,-1.0516,-1.0519,-1.0526,-1.0547,-1.0548,-1.059,-1.0596,-1.0617,-1.0658,-1.0667,-1.0679,-1.0668,-1.0761,-1.0763,-1.0764,-1.0751,-1.0752,-1.0753,0,0,0,0,0,-1.0373,-1.0396,-1.0403,-1.0414,-1.0476,-1.0517,-1.0525,-1.0549,-1.0547,-1.056,-1.0585,-1.0595,-1.0672,-1.0662,-1.0672,-1.0685,-1.0761,-1.0762,-1.0764,-1.0751,-1.0752,-1.0753,0,0,0,0,0,0,-1.0352,-1.0402,-1.0411,-1.0448,-1.0478,-1.0521,-1.0537,-1.0549,-1.0579,-1.0579,-1.0608,-1.0617,-1.0652,-1.0672,-1.066,-1.0719,-1.0717,-1.072,-1.0704,-1.0705,-1.0706,-1.07,-1.0671,0,0,0,0,0,-1.0352,-1.0381,-1.0423,-1.0451,-1.0466,-1.0499,-1.0517,-1.0534,-1.0566,-1.0578,-1.0606,-1.0637,-1.0668,-1.0688,-1.0718,-1.0755,-1.0765,-1.0769,-1.077,-1.077,-1.0773,-1.0795,-1.0798,-1.0769,-1.0769,-1.0769,0,0,-1.0351,-1.0382,-1.0398,-1.0448,-1.0473,-1.0503,-1.0509,-1.054,-1.0562,-1.0583,-1.062,-1.0642,-1.0678,-1.0715,-1.0733,-1.0733,-1.0783,-1.0772,-1.0772,-1.0775,-1.0797,-1.08,-1.0802,-1.077,-1.077,-1.077,0,0,-1.0365,-1.0391,-1.0419,-1.0444,-1.0483,-1.0505,-1.0512,-1.0553,-1.0569,-1.0607,-1.0623,-1.065,-1.0703,-1.0728,-1.0748,-1.0774,-1.0785,-1.0784,-1.0788,-1.0809,-1.0811,-1.0813,-1.0823,-1.0826,-1.0786,-1.0786,-1.0786,0,-1.0359,-1.0404,-1.0431,-1.0461,-1.0483,-1.0504,-1.0533,-1.0556,-1.0602,-1.0617,-1.0617,-1.0685,-1.071,-1.0754,-1.0761,-1.0776,-1.0785,-1.0779,-1.0809,-1.0811,-1.0813,-1.0823,-1.0827,-1.0786,-1.0786,-1.0786,-1.0786,0,-1.0396,-1.0427,-1.0445,-1.049,-1.0514,-1.0543,-1.0574,-1.0595,-1.0609,-1.0632,-1.0671,-1.0703,-1.0741,-1.0753,-1.0767,-1.08,-1.0799,-1.0803,-1.0802,-1.0815,-1.0825,-1.0829,-1.0785,-1.0785,-1.0785,-1.0786,0,0,-1.0397,-1.0458,-1.0464,-1.0486,-1.0531,-1.0556,-1.0586,-1.0624,-1.0642,-1.0674,-1.07,-1.0746,-1.0751,-1.0773,-1.0791,-1.0809,-1.0829,-1.0812,-1.0813,-1.0814,-1.0868,-1.0864,-1.0868,-1.0837,-1.0838,-1.0838,-1.0865,0,-1.0417,-1.0473,-1.0498,-1.0543,-1.0573,-1.0594,-1.0621,-1.0652,-1.0674,-1.0703,-1.0727,-1.0759,-1.0763,-1.0777,-1.0796,-1.0822,-1.084,-1.0821,-1.0862,-1.0863,-1.0852,-1.0873,-1.0869,-1.0893,-1.0869,-1.087,-1.087,0,-1.0447,-1.0481,-1.0528,-1.0571,-1.0585,-1.0608,-1.0646,-1.0673,-1.0709,-1.0724,-1.075,-1.0767,-1.0801,-1.0798,-1.0845,-1.0831,-1.085,-1.0865,-1.0867,-1.0871,-1.0867,-1.0878,-1.0901,-1.0904,-1.0876,-1.0876,-1.0876,0,-1.0444,-1.05,-1.0537,-1.0554,-1.0605,-1.0622,-1.0644,-1.0679,-1.0701,-1.0734,-1.0749,-1.0785,-1.0805,-1.0833,-1.086,-1.0855,-1.0905,-1.0904,-1.0918,-1.0918,-1.0927,-1.0926,-1.0953,-1.0939,-1.0939,-1.0939,-1.0939,0,-1.0464,-1.0492,-1.0536,-1.0558,-1.0591,-1.0621,-1.0652,-1.0676,-1.0708,-1.0735,-1.0756,-1.0781,-1.0815,-1.0845,-1.0866,-1.0902,-1.0911,-1.0924,-1.093,-1.0922,-1.0921,-1.0935,-1.0934,-1.094,-1.094,-1.094,-1.0939,0,-1.0465,-1.0495,-1.0537,-1.0582,-1.0595,-1.0617,-1.0656,-1.0679,-1.0703,-1.0737,-1.0747,-1.0784,-1.0821,-1.0851,-1.0898,-1.0912,-1.095,-1.0956,-1.0938,-1.0941,-1.0954,-1.0952,-1.099,-1.0997,-1.0978,-1.0979,-1.0979,0,-1.0475,-1.0498,-1.0547,-1.0567,-1.0589,-1.0621,-1.0644,-1.0675,-1.0698,-1.0741,-1.0759,-1.0797,-1.0829,-1.0886,-1.0918,-1.0954,-1.0961,-1.0972,-1.0967,-1.096,-1.0962,-1.096,-1.0963,-1.0972,-1.0973,-1.0973,-1.0973,0,-1.049,-1.0505,-1.0538,-1.0576,-1.0603,-1.0635,-1.0667,-1.0682,-1.0719,-1.0744,-1.0781,-1.0806,-1.0856,-1.0893,-1.0934,-1.0957,-1.0971,-1.0974,-1.098,-1.0972,-1.0961,-1.0968,-1.0939,-1.0973,-1.0973,-1.0973,-1.0973,-1.0973,-1.0497,-1.0518,-1.0557,-1.0593,-1.062,-1.065,-1.0674,-1.0702,-1.0734,-1.0777,-1.0793,-1.0832,-1.0869,-1.0925,-1.0949,-1.098,-1.0981,-1.0989,-1.0991,-1.0992,-1.0992,-1.0957,-1.0987,-1.0987,-1.0987,-1.0987,-1.0987,0,-1.0513,-1.054,-1.0573,-1.0618,-1.0646,-1.0658,-1.0695,-1.0718,-1.0752,-1.0786,-1.0817,-1.0862,-1.0899,-1.0934,-1.0973,-1.0991,-1.0999,-1.1001,-1.0999,-1.1005,-1.0988,-1.0979,-1.0994,-1.0994,-1.0994,-1.0994,-1.0994,-1.0994,-1.0525,-1.0563,-1.0583,-1.0635,-1.0661,-1.07,-1.072,-1.0748,-1.0775,-1.0823,-1.0855,-1.0878,-1.0912,-1.0955,-1.099,-1.0999,-1.1013,-1.1013,-1.1024,-1.1007,-1.1006,-1.1005,-1.0997,-1.1015,-1.1015,-1.1038,-1.1038,-1.1039]}]]